Weather reports worldwide

Advertisment
Figari, France (7780): temperature & dewpoint: 05.12.2019 08:00:00 - 11.12.2019 08:00:00 (CET)Figari, France (7780): temperature 5cm: 05.12.2019 08:00:00 - 11.12.2019 08:00:00 (CET)Figari, France (7780): wind speed & gusts: 05.12.2019 08:00:00 - 11.12.2019 08:00:00 (CET)Figari, France (7780): wind direction: 05.12.2019 08:00:00 - 11.12.2019 08:00:00 (CET)Figari, France (7780): reduced air pressure: 05.12.2019 08:00:00 - 11.12.2019 08:00:00 (CET)Figari, France (7780): visibility: 05.12.2019 08:00:00 - 11.12.2019 08:00:00 (CET)Figari, France (7780): precipitation: 05.12.2019 08:00:00 - 11.12.2019 08:00:00 (CET)
Date & Time tt [°C] td [°C] tt 5cm [°C] ff [km/h] ff [kn] fx [km/h] fx [kn] dd ppp [hPa] vv [km] rr [mm]
11.12.2019 08:00:00 0,5 -0,6 -1,9 9 5 12 6 NNE 1017,7 60 0,0
11.12.2019 07:00:00 0,8 -1,3 -1,9 5 3 14 7 N 1017,8 60 0,0
11.12.2019 06:00:00 1,5 -0,7 -1,6 4 2 11 6 N 1017,8 60 0,0
11.12.2019 05:00:00 2,0 -0,8 -1,0 6 4 13 7 N 1017,8 60 0,0
11.12.2019 04:00:00 4,2 -0,6 -0,2 5 3 14 8 NNE 1018,0 60 0,0
11.12.2019 03:00:00 8,5 -0,8 4,0 10 5 22 12 NE 1018,2 60 0,0
11.12.2019 02:00:00 8,4 -0,9 0,3 18 10 28 15 NE 1018,2 60 0,0
11.12.2019 01:00:00 3,3 1,3 -0,3 12 7 17 9 NNE 1018,9 60 0,0
11.12.2019 00:00:00 3,1 1,1 0,1 5 3 11 6 WSW 1019,2 60 0,0
10.12.2019 23:00:00 5,8 2,3 1,9 8 4 19 10 ENE 1019,1 60 0,0
10.12.2019 22:00:00 10,2 1,6 4,1 8 4 25 13 ENE 1018,6 60 0,0
10.12.2019 21:00:00 11,5 1,4 6,8 17 9 28 15 ENE 1018,0 60 0,0
10.12.2019 20:00:00 13,3 1,3 9,1 17 9 47 26 NE 1017,9 60 0,0
10.12.2019 19:00:00 13,0 1,3 5,6 22 12 35 19 ENE 1016,9 60 0,0
10.12.2019 18:00:00 12,1 2,0 5,4 13 7 24 13 ENE 1016,1 60 0,0
10.12.2019 17:00:00 12,8 -0,1 7,8 12 7 34 18 NE 1015,4 60 0,0
10.12.2019 16:00:00 15,7 -1,4 11,9 19 11 51 27 NE 1014,9 41 0,0
10.12.2019 15:00:00 16,8 -1,8 14,6 23 13 56 30 NE 1014,1 60 0,0
10.12.2019 14:00:00 17,3 -1,9 16,3 29 16 56 30 NE 1013,8 45 0,0
10.12.2019 13:00:00 17,3 -0,9 16,3 32 17 68 37 NE 1013,8 60 0,0
10.12.2019 12:00:00 17,4 0,1 15,5 24 13 48 26 ENE 1013,7 57 0,0
10.12.2019 11:00:00 15,3 5,2 11,1 3 2 12 6 SSE 1014,0 47 0,0
10.12.2019 10:00:00 11,4 5,7 4,9 5 3 10 5 E 1013,3 34 0,0
10.12.2019 09:00:00 5,0 4,4 0,8 2 1 10 5 E 1012,7 29 0,0
10.12.2019 08:00:00 2,9 2,3 0,3 6 4 14 8 NNE 1011,8 33 0,0
10.12.2019 07:00:00 3,1 2,5 0,3 5 3 9 5 N 1010,8 38 0,0
10.12.2019 06:00:00 3,4 2,4 0,3 6 3 11 6 NNE 1010,2 26 0,0
10.12.2019 05:00:00 4,7 3,4 1,6 6 3 10 6 E 1009,4 36 0,0
10.12.2019 04:00:00 7,0 4,3 3,6 7 4 29 16 ENE 1009,1 39 0,0
10.12.2019 03:00:00 12,7 4,4 6,2 11 6 32 18 NW 1008,7 45 0,0
10.12.2019 02:00:00 12,2 5,6 6,7 9 5 32 17 S 1008,5 32 0,0
10.12.2019 01:00:00 12,6 5,5 8,1 18 10 50 27 NW 1008,6 33 0,0
10.12.2019 00:00:00 12,6 5,7 7,8 21 12 48 26 WNW 1008,6 34 0,0
09.12.2019 23:00:00 12,8 5,5 8,4 32 18 59 32 WNW 1008,7 41 0,0
09.12.2019 22:00:00 12,8 6,4 9,5 24 13 51 28 NW 1009,9 12 0,2
09.12.2019 21:00:00 13,0 7,2 9,7 28 15 87 47 W 1010,2 18 0,8
09.12.2019 20:00:00 13,5 6,4 9,9 35 19 62 33 W 1010,3 15 0,6
09.12.2019 19:00:00 13,6 7,8 10,6 35 19 71 39 W 1010,1 15 0,0
09.12.2019 18:00:00 14,1 6,0 11,5 47 25 77 41 W 1009,8 31 0,0
09.12.2019 17:00:00 13,9 7,2 12,0 42 23 79 42 W 1009,8 30 0,0
09.12.2019 16:00:00 14,7 8,0 12,7 37 20 86 47 W 1009,4 15 0,0
09.12.2019 15:00:00 15,2 8,0 13,9 48 26 79 43 W 1009,4 19 0,0
09.12.2019 14:00:00 15,9 7,6 15,6 52 28 80 43 WNW 1010,1 22 0,0
09.12.2019 13:00:00 15,3 9,2 13,6 33 18 73 39 W 1012,5 11 0,0
09.12.2019 12:00:00 15,2 7,0 13,8 40 22 71 39 WNW 1013,5 20 0,0
09.12.2019 11:00:00 15,3 7,1 12,6 45 25 73 40 WNW 1013,8 20 0,0
09.12.2019 10:00:00 15,4 8,6 10,9 37 20 57 31 W 1013,7 29 0,0
09.12.2019 09:00:00 14,1 9,1 11,5 32 17 55 30 W 1013,7 19 0,0
09.12.2019 08:00:00 14,5 11,8 11,9 29 16 55 30 W 1012,9 19 0,4
09.12.2019 07:00:00 12,5 11,2 11,8 11 6 39 21 SW 1013,9 14 0,2
09.12.2019 06:00:00 13,0 11,6 11,8 14 7 27 15 W 1014,3 7 0,0
09.12.2019 05:00:00 13,2 10,9 12,0 19 10 45 24 W 1014,9 7 0,0
09.12.2019 04:00:00 13,7 9,7 11,4 18 10 38 21 WSW 1015,6 50 0,0
09.12.2019 03:00:00 14,0 9,0 10,0 14 8 42 23 W 1016,3 60 0,0
09.12.2019 02:00:00 13,7 8,3 10,0 19 10 38 20 W 1016,6 60 0,0
09.12.2019 01:00:00 13,7 8,7 10,8 21 11 40 21 W 1017,0 60 0,0
09.12.2019 00:00:00 14,0 7,7 9,7 18 10 36 19 W 1017,8 60 0,0
08.12.2019 23:00:00 13,6 8,8 9,5 17 9 31 17 W 1018,2 60 0,0
08.12.2019 22:00:00 13,3 9,0 9,6 13 7 27 14 W 1018,5 60 0,0
08.12.2019 21:00:00 12,8 9,6 9,4 13 7 27 15 WSW 1018,5 60 0,0
08.12.2019 20:00:00 12,5 9,9 9,4 13 7 30 16 WSW 1019,0 60 0,0
08.12.2019 19:00:00 12,6 10,1 9,1 21 11 33 18 WSW 1019,0 50 0,0
08.12.2019 18:00:00 12,5 10,0 9,7 14 8 31 17 W 1019,2 54 0,0
08.12.2019 17:00:00 13,5 10,5 11,3 19 10 35 19 WSW 1019,1 44 0,0
08.12.2019 16:00:00 14,7 10,5 13,0 25 13 49 27 WSW 1019,5 52 0,0
08.12.2019 15:00:00 16,2 9,6 14,2 24 13 40 21 W 1019,4 26 0,0
08.12.2019 14:00:00 16,8 10,9 15,2 34 18 53 29 SW 1019,5 31 0,0
08.12.2019 13:00:00 16,4 8,9 16,3 26 14 39 21 WSW 1020,1 51 0,0
08.12.2019 12:00:00 17,6 9,2 19,0 22 12 39 21 W 1020,7 52 0,0
08.12.2019 11:00:00 16,9 9,8 15,2 21 11 34 19 W 1021,4 50 0,0
08.12.2019 10:00:00 16,0 9,2 12,2 22 12 35 19 WSW 1021,5 35 0,0
08.12.2019 09:00:00 13,8 10,2 6,9 24 13 32 17 SW 1021,2 47 0,0
08.12.2019 08:00:00 10,5 8,8 6,2 15 8 19 10 WSW 1021,2 40 0,0
08.12.2019 07:00:00 11,9 9,5 7,0 18 10 23 12 W 1020,8 40 0,0
08.12.2019 06:00:00 11,1 9,4 6,0 15 8 22 12 WSW 1020,6 45 0,0
08.12.2019 05:00:00 10,3 8,4 6,0 11 6 23 13 WSW 1020,5 49 0,0
08.12.2019 04:00:00 11,8 9,0 6,4 11 6 19 10 W 1020,8 46 0,0
08.12.2019 03:00:00 11,5 9,4 7,6 15 8 25 13 WSW 1021,4 46 0,0
08.12.2019 02:00:00 12,8 9,1 8,7 15 8 24 13 W 1021,1 51 0,0
08.12.2019 01:00:00 13,5 9,0 8,8 17 9 29 16 W 1021,2 53 0,0
08.12.2019 00:00:00 13,4 9,6 9,3 16 9 30 16 W 1021,8 44 0,0
07.12.2019 23:00:00 12,7 10,2 9,4 18 10 27 15 WSW 1021,7 42 0,0
07.12.2019 22:00:00 12,9 10,4 9,6 18 10 27 14 SW 1021,5 43 0,0
07.12.2019 21:00:00 13,5 10,7 10,6 17 9 34 18 WSW 1021,4 42 0,0
07.12.2019 20:00:00 13,7 10,9 11,3 18 10 30 16 WSW 1021,3 45 0,0
07.12.2019 19:00:00 14,4 11,2 11,6 16 9 35 19 WSW 1021,0 46 0,0
07.12.2019 18:00:00 13,8 10,6 11,2 22 12 38 21 WSW 1020,6 49 0,0
07.12.2019 17:00:00 14,3 10,5 11,8 23 12 42 23 W 1020,7 50 0,0
07.12.2019 16:00:00 15,5 10,3 13,5 28 15 45 25 W 1020,2 30 0,0
07.12.2019 15:00:00 16,5 10,6 15,8 27 15 46 25 WSW 1019,7 57 0,0
07.12.2019 14:00:00 17,1 10,9 16,1 27 15 42 23 WSW 1019,9 26 0,0
07.12.2019 13:00:00 17,4 10,5 18,5 24 13 45 25 W 1020,3 52 0,0
07.12.2019 12:00:00 18,0 10,4 18,1 25 13 40 21 WSW 1020,7 57 0,0
07.12.2019 11:00:00 17,1 10,2 15,3 23 12 43 23 WNW 1021,0 57 0,0
07.12.2019 10:00:00 15,9 11,3 13,4 28 15 45 24 W 1020,9 50 0,0
07.12.2019 09:00:00 15,1 11,3 10,6 25 14 38 21 W 1020,8 44 0,0
07.12.2019 08:00:00 13,0 11,7 8,6 18 10 28 15 WSW 1020,6 57 0,0
07.12.2019 07:00:00 12,3 11,2 8,6 16 9 24 13 WSW 1020,8 55 0,0
07.12.2019 06:00:00 12,8 11,9 10,0 16 9 26 14 SW 1020,6 59 0,0
07.12.2019 05:00:00 13,5 12,6 9,8 16 9 23 12 SW 1020,5 53 0,0
07.12.2019 04:00:00 12,9 12,0 10,2 11 6 33 18 W 1020,6 45 0,0
07.12.2019 03:00:00 13,4 12,6 11,8 14 7 25 13 WSW 1020,8 46 0,0
07.12.2019 02:00:00 13,0 12,8 10,4 14 8 26 14 WSW 1020,7 19 0,0
07.12.2019 01:00:00 11,1 10,9 9,0 3 2 8 5 S 1021,1 4,2 0,0
07.12.2019 00:00:00 10,7 10,5 8,3 4 2 13 7 S 1021,8 13 0,0
06.12.2019 23:00:00 10,8 10,5 8,3 4 2 14 7 SW 1021,9 6 0,0
06.12.2019 22:00:00 11,3 11,0 8,6 8 4 13 7 SSW 1021,8 19 0,0
06.12.2019 21:00:00 10,8 10,5 7,2 9 5 13 7 SSW 1021,8 7 0,0
06.12.2019 20:00:00 10,2 9,6 6,9 6 3 11 6 SW 1021,8 11 0,0
06.12.2019 19:00:00 11,3 10,4 8,1 7 4 17 9 SW 1021,6 32 0,0
06.12.2019 18:00:00 11,7 11,1 9,2 9 5 20 11 SSW 1021,4 43 0,0
06.12.2019 17:00:00 13,1 12,2 12,1 13 7 21 12 SW 1021,5 11 0,0
06.12.2019 16:00:00 14,1 13,0 13,8 11 6 18 10 WSW 1021,5 19 0,4
06.12.2019 15:00:00 14,6 13,0 14,3 14 7 27 15 WSW 1021,7 18 1,2
06.12.2019 14:00:00 15,9 13,0 14,9 17 9 25 13 SW 1021,8 43 1,0
06.12.2019 13:00:00 17,0 12,7 17,0 17 9 25 14 W 1022,2 18 0,0
06.12.2019 12:00:00 16,8 12,1 18,2 18 10 31 17 SW 1023,1 46 0,0
06.12.2019 11:00:00 16,1 13,4 15,4 7 4 10 6 SW 1023,6 19 0,0
06.12.2019 10:00:00 13,6 12,8 12,9 2 1 4 2 W 1023,7 16 0,0
06.12.2019 09:00:00 11,7 11,7 7,1 2 1 7 4 ENE 1023,5 8 0,0
06.12.2019 08:00:00 8,2 7,8 7,1 4 2 8 5 NE 1022,8 9 0,0
06.12.2019 07:00:00 8,7 8,6 6,6 3 2 8 4 N 1022,8 12 0,0
06.12.2019 06:00:00 7,8 7,7 5,6 3 2 7 4 N 1022,6 9 0,0
06.12.2019 05:00:00 8,1 7,8 5,5 4 2 9 5 NNE 1022,4 10 0,0
06.12.2019 04:00:00 8,5 7,7 6,1 3 2 9 5 NE 1022,3 8 0,0
06.12.2019 03:00:00 10,4 10,1 6,6 5 3 9 5 NNE 1022,6 10 0,0
06.12.2019 02:00:00 10,9 9,8 7,7 7 4 10 5 N 1022,4 17 0,0
06.12.2019 01:00:00 12,3 10,9 10,7 2 1 12 7 NE 1022,7 10 0,0
06.12.2019 00:00:00 12,3 10,5 10,5 8 4 16 9 NE 1022,9 20 0,0
05.12.2019 23:00:00 12,4 10,8 11,0 9 5 16 8 NE 1022,6 20 0,0
05.12.2019 22:00:00 12,6 11,0 10,3 9 5 14 8 ENE 1022,4 10 0,0
05.12.2019 21:00:00 12,2 10,6 10,2 10 5 18 10 ENE 1022,2 20 0,0
05.12.2019 20:00:00 12,5 10,4 10,4 9 5 23 13 ENE 1022,1 31 0,0
05.12.2019 19:00:00 12,9 11,0 11,6 15 8 26 14 NE 1021,4 28 0,0
05.12.2019 18:00:00 13,7 11,2 11,6 11 6 25 13 ENE 1020,8 32 0,0
05.12.2019 17:00:00 13,8 11,3 12,3 15 8 29 16 ENE 1020,3 35 0,0
05.12.2019 16:00:00 15,3 11,7 14,0 16 9 39 21 ENE 1020,0 38 0,0
05.12.2019 15:00:00 16,6 11,7 15,4 20 11 44 24 ENE 1019,4 38 0,0
05.12.2019 14:00:00 16,9 12,0 16,9 20 11 51 28 ENE 1019,2 52 0,0
05.12.2019 13:00:00 16,4 11,8 16,3 25 14 53 28 ENE 1019,1 53 0,0
05.12.2019 12:00:00 15,2 12,3 13,5 25 14 46 25 ENE 1019,6 17 0,0
05.12.2019 11:00:00 13,3 11,2 12,6 21 12 46 25 ENE 1019,8 30 0,0
05.12.2019 10:00:00 12,8 11,2 11,4 26 14 50 27 ENE 1019,1 17 1,6
05.12.2019 09:00:00 11,9 11,0 11,1 24 13 47 25 ENE 1018,3 3,9 1,8
05.12.2019 08:00:00 11,8 10,7 11,0 22 12 49 26 ENE 1017,8 15 1,6

tt = temperature
td = dewpoint
tt 5cm = temperature 5cm
ff = wind speed
fx = gusts
dd = wind direction
ppp = reduced air pressure
vv = visibility
rr = precipitation

Next stations